NOZ1972 LIME-ENEV

Flight info

Callsign NOZ1972
Flight time N/A
Altitude 38000
Route DILEB Y170 ROMIR N851 RIMKI Z99 ELNAT P605 HAM DCT ALS P615 NEDZA P601 PIVAT DCT GIGNI Z125 SOMUB DCT LINLI DCT GUBAV DCT PENNO
Aircraft B38M/M-SDE1FGHILORVWXY/HB1

Departure

Time N/A
Airport Il Caravaggio International Airport (LIME)

Arrival

Time 2026-04-19 21:39
Airport Harstad/Narvik Airport (ENEV)
Time Latitude Longitude Altitude Speed Heading
2026-04-19 19:39 54.99529 9.99357 38149 ft 473 kts 359°
2026-04-19 19:40 55.06098 9.99356 38156 ft 473 kts 359°
2026-04-19 19:40 55.12681 9.99362 38152 ft 473 kts 359°
2026-04-19 19:41 55.19267 9.99370 38157 ft 473 kts 359°
2026-04-19 19:41 55.25854 9.99376 38152 ft 473 kts 359°
2026-04-19 19:42 55.32453 9.99383 38150 ft 473 kts 359°
2026-04-19 19:42 55.38996 9.99391 38163 ft 472 kts 359°
2026-04-19 19:43 55.45569 9.99400 38157 ft 472 kts 359°
2026-04-19 19:43 55.52140 9.99408 38160 ft 472 kts 359°
2026-04-19 19:44 55.58714 9.99415 38163 ft 472 kts 359°
2026-04-19 19:44 55.65289 9.99420 38161 ft 472 kts 359°
2026-04-19 19:45 55.71816 9.99426 38165 ft 472 kts 359°
2026-04-19 19:45 55.78382 9.99431 38165 ft 472 kts 359°
2026-04-19 19:46 55.84951 9.99435 38161 ft 472 kts 359°
2026-04-19 19:46 55.91512 9.99440 38166 ft 471 kts 359°
2026-04-19 19:47 55.98079 9.99444 38170 ft 471 kts 359°
2026-04-19 19:47 56.04637 9.99444 38173 ft 471 kts 359°
2026-04-19 19:48 56.11197 9.99448 38172 ft 471 kts 359°
2026-04-19 19:48 56.17761 9.99456 38177 ft 471 kts 359°
2026-04-19 19:49 56.24274 9.99464 38176 ft 471 kts 360°
2026-04-19 19:49 56.30826 9.99472 38176 ft 471 kts 360°
2026-04-19 19:50 56.37382 9.99480 38182 ft 471 kts 359°
2026-04-19 19:50 56.43944 9.99488 38182 ft 471 kts 360°
2026-04-19 19:51 56.50499 9.99495 38182 ft 471 kts 360°
2026-04-19 19:51 56.57054 9.99502 38182 ft 471 kts 360°
2026-04-19 19:52 56.63619 9.99509 38184 ft 471 kts 360°
2026-04-19 19:52 56.70175 9.99516 38190 ft 471 kts 360°
2026-04-19 19:53 56.76725 9.99523 38191 ft 470 kts 360°
2026-04-19 19:53 56.83228 9.99530 38192 ft 470 kts 360°
2026-04-19 19:54 56.89771 9.99537 38195 ft 471 kts
2026-04-19 19:54 56.96337 9.99543 38208 ft 471 kts
2026-04-19 19:55 57.02899 9.99551 38209 ft 470 kts
2026-04-19 19:55 57.09440 9.99564 38210 ft 470 kts
2026-04-19 19:56 57.15964 10.00403 38212 ft 470 kts
2026-04-19 19:56 57.22446 10.01195 38210 ft 470 kts
2026-04-19 19:57 57.28990 10.01985 38201 ft 470 kts
2026-04-19 19:57 57.35516 10.02771 38205 ft 470 kts
2026-04-19 19:58 57.42050 10.03559 38209 ft 470 kts
2026-04-19 19:58 57.48590 10.04351 38206 ft 470 kts
2026-04-19 19:59 57.55116 10.05145 38204 ft 471 kts
2026-04-19 19:59 57.61627 10.05939 38209 ft 472 kts
2026-04-19 20:00 57.68186 10.06743 38210 ft 472 kts
2026-04-19 20:00 57.74743 10.07548 38217 ft 472 kts
2026-04-19 20:01 57.81301 10.08357 38214 ft 472 kts
2026-04-19 20:01 57.87867 10.09170 38219 ft 472 kts
2026-04-19 20:02 57.94385 10.09980 38218 ft 472 kts
2026-04-19 20:02 58.00945 10.10798 38222 ft 472 kts
2026-04-19 20:03 58.07502 10.11619 38226 ft 472 kts
2026-04-19 20:03 58.14052 10.12442 38226 ft 471 kts
2026-04-19 20:04 58.20599 10.13267 38224 ft 471 kts
2026-04-19 20:04 58.27137 10.14094 38225 ft 471 kts
2026-04-19 20:05 58.33681 10.14928 38236 ft 471 kts
2026-04-19 20:05 58.40170 10.15765 38236 ft 471 kts
2026-04-19 20:06 58.46723 10.16613 38241 ft 471 kts
2026-04-19 20:06 58.53268 10.17464 38240 ft 471 kts
2026-04-19 20:07 58.59806 10.18317 38241 ft 471 kts
2026-04-19 20:07 58.66350 10.19172 38249 ft 471 kts
2026-04-19 20:08 58.72890 10.20031 38249 ft 471 kts
2026-04-19 20:08 58.79397 10.20891 38261 ft 471 kts
2026-04-19 20:09 58.85940 10.21757 38270 ft 471 kts
2026-04-19 20:09 58.92487 10.22625 38259 ft 471 kts
2026-04-19 20:10 58.99030 10.23505 38281 ft 472 kts
2026-04-19 20:10 59.05578 10.24390 38282 ft 472 kts
2026-04-19 20:11 59.12134 10.25278 38291 ft 472 kts
2026-04-19 20:11 59.18589 10.27110 38268 ft 466 kts 22°
2026-04-19 20:12 59.24685 10.31496 38289 ft 467 kts 20°
2026-04-19 20:12 59.30830 10.35775 38300 ft 468 kts 21°
2026-04-19 20:13 59.36905 10.40095 38313 ft 468 kts 21°
2026-04-19 20:13 59.43029 10.44470 38313 ft 468 kts 21°
2026-04-19 20:14 59.49143 10.48855 38307 ft 467 kts 21°
2026-04-19 20:14 59.55251 10.53253 38314 ft 467 kts 21°
2026-04-19 20:15 59.60325 10.56919 38308 ft 467 kts 21°
2026-04-19 20:15 59.66434 10.61349 38312 ft 467 kts 21°
2026-04-19 20:16 59.72535 10.65789 38316 ft 467 kts 21°
2026-04-19 20:16 59.78692 10.69883 38290 ft 468 kts
2026-04-19 20:17 59.85159 10.71309 38301 ft 468 kts
2026-04-19 20:17 59.91645 10.72886 38317 ft 470 kts
2026-04-19 20:18 59.98134 10.74402 38323 ft 469 kts
2026-04-19 20:18 60.04583 10.75908 38313 ft 469 kts
2026-04-19 20:19 60.11102 10.77434 38322 ft 469 kts
2026-04-19 20:19 60.17546 10.78950 38320 ft 469 kts
2026-04-19 20:20 60.24033 10.80482 38321 ft 469 kts
2026-04-19 20:20 60.30510 10.82017 38321 ft 469 kts
2026-04-19 20:21 60.36956 10.83790 38313 ft 466 kts 15°
2026-04-19 20:21 60.43256 10.86992 38315 ft 467 kts 15°
2026-04-19 20:22 60.49556 10.90176 38341 ft 467 kts 15°
2026-04-19 20:22 60.55865 10.93388 38346 ft 467 kts 15°
2026-04-19 20:23 60.62159 10.96609 38336 ft 466 kts 15°
2026-04-19 20:23 60.68443 10.99834 38346 ft 466 kts 15°
2026-04-19 20:24 60.74695 11.03057 38351 ft 466 kts 16°
2026-04-19 20:24 60.80975 11.06292 38349 ft 466 kts 14°
2026-04-19 20:25 60.87387 11.08368 38334 ft 467 kts 11°
2026-04-19 20:25 60.93795 11.10549 38355 ft 467 kts 11°
2026-04-19 20:26 61.00209 11.12768 38353 ft 467 kts 11°
2026-04-19 20:26 61.06606 11.14992 38360 ft 467 kts 11°
2026-04-19 20:27 61.13020 11.17231 38361 ft 467 kts 11°
2026-04-19 20:27 61.19428 11.19477 38358 ft 467 kts 11°
2026-04-19 20:28 61.25833 11.21732 38366 ft 467 kts 11°
2026-04-19 20:28 61.32198 11.23981 38363 ft 467 kts 11°
2026-04-19 20:29 61.38611 11.26258 38362 ft 467 kts 11°
2026-04-19 20:29 61.45031 11.28545 38367 ft 467 kts 11°
2026-04-19 20:30 61.54642 11.31989 38368 ft 467 kts 11°
2026-04-19 20:30 61.61066 11.34302 38368 ft 467 kts 11°
2026-04-19 20:31 61.67474 11.36620 38370 ft 467 kts 11°
2026-04-19 20:31 61.73889 11.38949 38369 ft 467 kts 11°
2026-04-19 20:32 61.80244 11.41268 38368 ft 466 kts 12°
2026-04-19 20:32 61.86632 11.43607 38370 ft 466 kts 12°
2026-04-19 20:33 61.93030 11.45959 38379 ft 466 kts 12°
2026-04-19 20:33 61.99420 11.48296 38381 ft 466 kts
2026-04-19 20:34 62.05889 11.49663 38375 ft 467 kts
2026-04-19 20:34 62.12336 11.51119 38381 ft 465 kts
2026-04-19 20:35 62.18763 11.52599 38387 ft 465 kts
2026-04-19 20:35 62.25161 11.54079 38385 ft 465 kts
2026-04-19 20:36 62.31604 11.55577 38385 ft 465 kts
2026-04-19 20:36 62.35870 11.56572 38378 ft 464 kts
2026-04-19 20:37 62.44426 11.58576 38383 ft 461 kts
2026-04-19 20:37 62.50814 11.60080 38386 ft 461 kts
2026-04-19 20:38 62.57193 11.61588 38386 ft 461 kts
2026-04-19 20:38 62.63576 11.63104 38330 ft 461 kts
2026-04-19 20:39 62.69951 11.64624 38338 ft 461 kts
2026-04-19 20:39 62.76297 11.66144 38352 ft 461 kts
2026-04-19 20:40 62.82665 11.67676 38355 ft 461 kts
2026-04-19 20:40 62.89041 11.69217 38370 ft 461 kts
2026-04-19 20:41 62.95419 11.70765 38355 ft 461 kts
2026-04-19 20:41 63.01809 11.72322 38368 ft 462 kts
2026-04-19 20:42 63.08203 11.73888 38358 ft 462 kts
2026-04-19 20:42 63.14557 11.75450 38366 ft 462 kts
2026-04-19 20:43 63.20954 11.77030 38368 ft 462 kts
2026-04-19 20:43 63.27344 11.78613 38348 ft 462 kts
2026-04-19 20:44 63.33719 11.80205 38362 ft 463 kts
2026-04-19 20:44 63.36847 11.81703 38347 ft 458 kts 20°
2026-04-19 20:44 63.39884 11.83918 38350 ft 461 kts 18°
2026-04-19 20:45 63.46024 11.87996 38361 ft 461 kts 18°
2026-04-19 20:45 63.52167 11.92159 38352 ft 460 kts 18°
2026-04-19 20:46 63.58290 11.96332 38348 ft 460 kts 18°
2026-04-19 20:46 63.64427 12.00534 38349 ft 461 kts 18°
2026-04-19 20:47 63.70560 12.04753 38359 ft 461 kts 19°
2026-04-19 20:47 63.76648 12.08960 38350 ft 461 kts 19°
2026-04-19 20:48 63.82778 12.13214 38357 ft 460 kts 19°
2026-04-19 20:48 63.88898 12.17482 38350 ft 460 kts 19°
2026-04-19 20:49 63.95018 12.21767 38351 ft 460 kts 19°
2026-04-19 20:49 64.01141 12.26076 38276 ft 460 kts 19°
2026-04-19 20:50 64.07252 12.30396 38276 ft 460 kts 19°
2026-04-19 20:50 64.11300 12.33269 38277 ft 460 kts 19°
2026-04-19 20:51 64.13543 12.34865 38282 ft 460 kts 19°
2026-04-19 20:51 64.16948 12.37291 38289 ft 460 kts 19°
2026-04-19 20:52 64.20847 12.40078 38294 ft 459 kts 19°
2026-04-19 20:52 64.26949 12.44457 38321 ft 460 kts 19°
2026-04-19 20:53 64.33052 12.48856 38341 ft 460 kts 19°
2026-04-19 20:53 64.39156 12.53276 38364 ft 460 kts 19°
2026-04-19 20:54 64.45255 12.57712 38358 ft 459 kts 19°
2026-04-19 20:54 64.51359 12.62172 38370 ft 460 kts 19°
2026-04-19 20:55 64.57458 12.66680 38371 ft 459 kts 21°
2026-04-19 20:55 64.63324 12.72528 38372 ft 459 kts 25°
2026-04-19 20:56 64.69129 12.78445 38384 ft 458 kts 25°
2026-04-19 20:56 64.74972 12.84447 38367 ft 458 kts 25°
2026-04-19 20:57 64.80819 12.90484 38390 ft 459 kts 25°
2026-04-19 20:57 64.86668 12.96552 38382 ft 459 kts 25°
2026-04-19 20:58 64.92507 13.02638 38386 ft 459 kts 25°
2026-04-19 20:58 64.98342 13.08750 38388 ft 459 kts 25°
2026-04-19 20:59 65.04172 13.14885 38378 ft 459 kts 25°
2026-04-19 20:59 65.10009 13.21057 38390 ft 459 kts 25°
2026-04-19 21:00 65.15833 13.27246 38395 ft 458 kts 25°
2026-04-19 21:00 65.21620 13.33425 38397 ft 458 kts 25°
2026-04-19 21:01 65.27437 13.39666 38417 ft 458 kts 26°
2026-04-19 21:01 65.33268 13.45952 38399 ft 459 kts 26°
2026-04-19 21:02 65.38110 13.51196 38413 ft 459 kts 25°
2026-04-19 21:02 65.43948 13.57546 38418 ft 459 kts 25°
2026-04-19 21:03 65.49764 13.63904 38412 ft 459 kts 25°
2026-04-19 21:03 65.55585 13.70298 38411 ft 459 kts 26°
2026-04-19 21:04 65.61371 13.76685 38413 ft 459 kts 26°
2026-04-19 21:04 65.67184 13.83133 38411 ft 460 kts 26°
2026-04-19 21:05 65.72996 13.89607 38414 ft 460 kts 26°
2026-04-19 21:05 65.78879 13.95720 38411 ft 460 kts 20°
2026-04-19 21:06 65.84908 14.01060 38410 ft 460 kts 21°
2026-04-19 21:06 65.90907 14.06547 38426 ft 460 kts 21°
2026-04-19 21:07 65.96912 14.12079 38418 ft 461 kts 21°
2026-04-19 21:07 66.02918 14.17642 38419 ft 461 kts 21°
2026-04-19 21:08 66.08872 14.23184 38424 ft 461 kts 21°
2026-04-19 21:08 66.14871 14.28796 38425 ft 461 kts 21°
2026-04-19 21:09 66.20870 14.34437 38425 ft 461 kts 21°
2026-04-19 21:09 66.26865 14.40102 38425 ft 461 kts 21°
2026-04-19 21:10 66.32876 14.45812 38426 ft 461 kts 21°
2026-04-19 21:10 66.38870 14.51535 38428 ft 461 kts 21°
2026-04-19 21:11 66.44825 14.57250 38427 ft 461 kts 21°
2026-04-19 21:11 66.50812 14.63025 38434 ft 461 kts 21°
2026-04-19 21:12 66.56804 14.68834 38434 ft 461 kts 21°
2026-04-19 21:12 66.62792 14.74672 38434 ft 461 kts 21°
2026-04-19 21:13 66.68769 14.80529 38439 ft 461 kts 22°
2026-04-19 21:13 66.74753 14.86421 38431 ft 461 kts 22°
2026-04-19 21:14 66.80692 14.92301 38432 ft 461 kts 22°
2026-04-19 21:14 66.86663 14.98241 38423 ft 461 kts 22°
2026-04-19 21:15 66.92648 15.04230 38429 ft 462 kts 21°
2026-04-19 21:15 66.98642 15.10259 38421 ft 462 kts 22°
2026-04-19 21:16 67.04621 15.16305 38423 ft 462 kts 22°
2026-04-19 21:16 67.10572 15.22355 38421 ft 456 kts 22°
2026-04-19 21:17 67.13518 15.25360 37531 ft 458 kts 22°
2026-04-19 21:17 67.16513 15.28426 36674 ft 461 kts 22°
2026-04-19 21:17 67.19434 15.31422 36224 ft 455 kts 22°
2026-04-19 21:17 67.22371 15.34444 35567 ft 454 kts 22°
2026-04-19 21:18 67.25298 15.37462 34894 ft 454 kts 23°
2026-04-19 21:18 67.28234 15.40499 34145 ft 455 kts 23°
2026-04-19 21:18 67.31184 15.43558 33255 ft 457 kts 23°
2026-04-19 21:18 67.34152 15.46645 32334 ft 461 kts 24°
2026-04-19 21:19 67.37132 15.49749 31517 ft 463 kts 24°
2026-04-19 21:19 67.40110 15.52862 30902 ft 460 kts 24°
2026-04-19 21:19 67.43078 15.55972 30255 ft 458 kts 24°
2026-04-19 21:19 67.46029 15.59070 29591 ft 455 kts 24°
2026-04-19 21:20 67.46715 15.59791 29437 ft 454 kts 24°
2026-04-19 21:20 67.49432 15.62657 28841 ft 452 kts 24°
2026-04-19 21:20 67.52330 15.65721 28287 ft 448 kts 24°
2026-04-19 21:20 67.55207 15.68769 27712 ft 444 kts 24°
2026-04-19 21:21 67.58060 15.71800 27152 ft 441 kts 24°
2026-04-19 21:21 67.60859 15.74781 26627 ft 437 kts 24°
2026-04-19 21:21 67.63669 15.77783 26072 ft 435 kts 24°
2026-04-19 21:21 67.66464 15.80775 25566 ft 432 kts 24°
2026-04-19 21:22 67.69237 15.83752 25048 ft 429 kts 24°
2026-04-19 21:22 67.71991 15.86716 24567 ft 426 kts 24°
2026-04-19 21:22 67.74728 15.89667 24097 ft 424 kts 24°
2026-04-19 21:22 67.77456 15.92612 23535 ft 422 kts 23°
2026-04-19 21:23 67.80166 15.95549 22955 ft 420 kts 23°
2026-04-19 21:23 67.82856 15.98470 22489 ft 415 kts 23°
2026-04-19 21:23 67.85521 16.01371 21996 ft 412 kts 23°
2026-04-19 21:23 67.88162 16.04252 21552 ft 409 kts 23°
2026-04-19 21:24 67.90784 16.07121 21075 ft 406 kts 23°
2026-04-19 21:24 67.93394 16.09917 20627 ft 403 kts 19°
2026-04-19 21:24 67.96120 16.11409 20190 ft 399 kts
2026-04-19 21:24 67.98850 16.12581 19716 ft 397 kts 10°
2026-04-19 21:25 68.01564 16.13898 19310 ft 394 kts 10°
2026-04-19 21:25 68.04209 16.15218 18907 ft 391 kts 10°
2026-04-19 21:25 68.06868 16.16564 18457 ft 388 kts 10°
2026-04-19 21:25 68.09545 16.17929 17997 ft 385 kts 10°
2026-04-19 21:26 68.12137 16.19257 17525 ft 383 kts 10°
2026-04-19 21:26 68.14742 16.20596 17077 ft 380 kts 10°
2026-04-19 21:26 68.17328 16.21928 16637 ft 377 kts 10°
2026-04-19 21:26 68.19934 16.23273 16195 ft 375 kts 10°
2026-04-19 21:27 68.22449 16.24574 15775 ft 372 kts 10°
2026-04-19 21:27 68.24987 16.25890 15354 ft 370 kts 10°
2026-04-19 21:27 68.27511 16.27202 14933 ft 367 kts 10°
2026-04-19 21:27 68.30011 16.28506 14542 ft 365 kts 10°
2026-04-19 21:28 68.32498 16.29803 14112 ft 363 kts 10°
2026-04-19 21:28 68.34970 16.31096 13685 ft 360 kts 10°
2026-04-19 21:28 68.37422 16.32381 13268 ft 357 kts 10°
2026-04-19 21:28 68.39843 16.33632 12906 ft 352 kts
2026-04-19 21:29 68.42253 16.33875 12709 ft 340 kts 356°
2026-04-19 21:29 68.44593 16.33754 12544 ft 331 kts 357°
2026-04-19 21:29 68.46864 16.33671 12391 ft 322 kts 357°
2026-04-19 21:29 68.49069 16.33600 12246 ft 312 kts 357°
2026-04-19 21:30 68.51186 16.33536 12119 ft 303 kts 357°
2026-04-19 21:30 68.53263 16.33476 12003 ft 293 kts 357°
2026-04-19 21:30 68.55278 16.33418 11783 ft 288 kts 357°
2026-04-19 21:30 68.57279 16.33361 11475 ft 286 kts 357°
2026-04-19 21:31 68.59265 16.33304 11185 ft 285 kts 358°
2026-04-19 21:31 68.61238 16.33249 10905 ft 282 kts 358°
2026-04-19 21:31 68.63194 16.33192 10609 ft 281 kts 358°
2026-04-19 21:31 68.65140 16.33135 10326 ft 278 kts 358°
2026-04-19 21:32 68.67071 16.33079 10016 ft 276 kts 358°
2026-04-19 21:32 68.68979 16.33024 9773 ft 272 kts 358°
2026-04-19 21:32 68.70842 16.33117 9646 ft 264 kts
2026-04-19 21:32 68.72526 16.34966 9361 ft 264 kts 36°
2026-04-19 21:33 68.73690 16.38834 9030 ft 265 kts 64°
2026-04-19 21:33 68.74114 16.43700 8832 ft 259 kts 86°
2026-04-19 21:33 68.74206 16.48556 8757 ft 249 kts 85°
2026-04-19 21:33 68.74306 16.53171 8623 ft 240 kts 86°
2026-04-19 21:34 68.74284 16.57749 8297 ft 240 kts 103°
2026-04-19 21:34 68.73551 16.61780 8039 ft 235 kts 133°
2026-04-19 21:34 68.72228 16.64337 7746 ft 233 kts 161°
2026-04-19 21:34 68.70654 16.65301 7460 ft 232 kts 176°
2026-04-19 21:35 68.69042 16.65551 7201 ft 230 kts 180°
2026-04-19 21:35 68.67485 16.65704 7112 ft 219 kts 179°
2026-04-19 21:35 68.66026 16.65864 6952 ft 201 kts 180°
2026-04-19 21:35 68.64678 16.66017 6654 ft 186 kts 180°
2026-04-19 21:36 68.63425 16.66161 6262 ft 176 kts 180°
2026-04-19 21:36 68.62212 16.66302 5772 ft 174 kts 180°
2026-04-19 21:36 68.61016 16.66441 5307 ft 171 kts 179°
2026-04-19 21:36 68.59834 16.66578 4808 ft 169 kts 179°
2026-04-19 21:37 68.58668 16.66714 4300 ft 170 kts 179°
2026-04-19 21:37 68.57458 16.66828 3636 ft 177 kts 179°
2026-04-19 21:37 68.56212 16.66985 2914 ft 181 kts 177°
2026-04-19 21:37 68.54942 16.67238 2163 ft 184 kts 176°
2026-04-19 21:38 68.53669 16.67347 1385 ft 183 kts 179°
2026-04-19 21:38 68.52395 16.67478 667 ft 182 kts 178°
2026-04-19 21:38 68.51183 16.67621 304 ft 166 kts 177°
2026-04-19 21:38 68.50097 16.67718 98 ft 147 kts 178°
2026-04-19 21:39 68.49321 16.67796 94 ft 75 kts 177°
2026-04-19 21:39 68.49106 16.67891 97 ft 14 kts 112°
2026-04-19 21:39 68.49102 16.68029 95 ft 1 kts 89°
2026-04-19 21:39 68.49102 16.68086 95 ft 5 kts 89°
2026-04-19 21:40 68.49147 16.68292 97 ft 8 kts 88°
2026-04-19 21:40 68.49147 16.68307 96 ft 0 kts 92°